Regional Weather Roundup
Issued by NWS

Home | Current Version | Previous Version | Text Only | Print | Product List | Glossary On
Versions: 1 2 3 4 5 6 7 8 9 10 11 12 13 14 15 16 17 18 19 20 21 22 23 24 25 26 27 28 29 30 31 32 33 34 35 36 37 38 39 40 41 42 43 44 45 46 47 48 49 50
000
ASUS43 KMKX 030021
RWRWI

WISCONSIN REGIONAL WEATHER ROUNDUP
NATIONAL WEATHER SERVICE MILWAUKEE/SULLIVAN WI
700 PM CDT SUN AUG 02 2015

NOTE: "FAIR" INDICATES FEW OR NO CLOUDS BELOW 12,000 FEET WITH NO
SIGNIFICANT WEATHER AND/OR OBSTRUCTIONS TO VISIBILITY.

WIZ001-002-006>008-014>016-023>028-030100-
NORTHWEST WISCONSIN

CITY           SKY/WX    TMP DP  RH WIND       PRES   REMARKS
SUPERIOR ARPT  MOSUNNY   73  50  43 NW13G18   29.70R
6HR MIN TEMP:  73; 6HR MAX TEMP:  80;

ASHLAND        SUNNY     72  58  61 W6        29.68R
6HR MIN TEMP:  66; 6HR MAX TEMP:  79; 6HR PCP:  0.05;

HAYWARD        MOSUNNY   74  56  53 VRB7      29.70S
6HR MIN TEMP:  74; 6HR MAX TEMP:  79;

SIREN          SUNNY     76  52  43 NW15      29.73R
6HR MIN TEMP:  74; 6HR MAX TEMP:  80;

CUMBERLAND     MOSUNNY   73  52  46 NW15G23   29.71S
RICE LAKE      SUNNY     75  56  50 NW10G17   29.72R
6HR MIN TEMP:  72; 6HR MAX TEMP:  79;

CHETEK         MOSUNNY   76  58  53 NW8G16    29.70R
6HR MIN TEMP:  73; 6HR MAX TEMP:  80;

LADYSMITH      SUNNY     75  56  52 NW14G21   29.71R
6HR MIN TEMP:  72; 6HR MAX TEMP:  79;

EAU CLAIRE     SUNNY     79  60  52 NW9       29.68S HX  80
6HR MIN TEMP:  78; 6HR MAX TEMP:  85;

MENOMONIE      SUNNY     79  55  42 NW12      29.70R
6HR MIN TEMP:  78; 6HR MAX TEMP:  84;

NEW RICHMOND   SUNNY     76  57  52 NW10G16   29.72S
6HR MIN TEMP:  73; 6HR MAX TEMP:  80;

OSCEOLA        MOSUNNY   77  57  50 NW9       29.75R
6HR MIN TEMP:  75; 6HR MAX TEMP:  81;

$$

WIZ003>005-009-010-017-018-030100-
NORTH CENTRAL WISCONSIN

CITY           SKY/WX    TMP DP  RH WIND       PRES   REMARKS
MANITOWISH WTR MOSUNNY   67  60  78 NW9       29.69R
6HR MIN TEMP:  65; 6HR MAX TEMP:  76;

ARBOR VITAE    PTSUNNY   65  60  83 NW6       29.69R
6HR MIN TEMP:  65; 6HR MAX TEMP:  77; 6HR PCP:  0.02;

WOODRUFF       PTSUNNY   65  60  83 NW6       29.69R
6HR MIN TEMP:  65; 6HR MAX TEMP:  77; 6HR PCP:  0.02;

RHINELANDER    MOSUNNY   72  55  55 NW6       29.67R
6HR MIN TEMP:  64; 6HR MAX TEMP:  76; 6HR PCP: TRACE;

EAGLE RIVER    CLOUDY    69  52  54 NW6       29.67R
6HR MIN TEMP:  60; 6HR MAX TEMP:  74;

LAND O LAKES   PTSUNNY   69  52  54 NW10      29.69R
6HR MIN TEMP:  65; 6HR MAX TEMP:  74; 6HR PCP:  0.06;

PHILLIPS       CLOUDY    71  58  63 N12G17    29.68R
6HR MIN TEMP:  67; 6HR MAX TEMP:  76;

TOMAHAWK       MOSUNNY   70  57  64 NW6       29.67S
6HR MIN TEMP:  64; 6HR MAX TEMP:  74;

MEDFORD        SUNNY     74  56  54 NW14      29.68R
6HR MIN TEMP:  69; 6HR MAX TEMP:  80; 6HR PCP:  0.01;

MERRILL        NOT AVBL
$$

WIZ029-030-035-036-043>047-030100-
CENTRAL WISCONSIN

CITY           SKY/WX    TMP DP  RH WIND       PRES   REMARKS
WAUSAU         MOSUNNY   76  57  51 NW13G24   29.64R
6HR MIN TEMP:  72; 6HR MAX TEMP:  85; 6HR PCP:  0.02;

MOSINEE        MOSUNNY   75  63  64 NW13G18   29.66R
MARSHFIELD     SUNNY     77  58  51 NW12      29.67R
6HR MIN TEMP:  68; 6HR MAX TEMP:  89; 6HR PCP:  0.28;

STEVENS POINT  MOSUNNY   75  61  61 NW7       29.66R
6HR MIN TEMP:  68; 6HR MAX TEMP:  88; 6HR PCP:  0.10;

WAUPACA        MOSUNNY   78  65  63 NW6       29.64R HX  80
6HR MIN TEMP:  72; 6HR MAX TEMP:  94;

WAUTOMA        PTSUNNY   80  66  62 NW10      29.64R HX  82
6HR MIN TEMP:  76; 6HR MAX TEMP:  96;

WISC RAPIDS    SUNNY     80  58  46 NW15G24   29.67R HX  80
6HR MIN TEMP:  76; 6HR MAX TEMP:  94; 6HR PCP: TRACE;

CAMP DOUGLAS   SUNNY     81  65  58 W15G23    29.65R HX  82
6HR MIN TEMP:  81; 6HR MAX TEMP:  92;

$$

WIZ011>013-019>022-031-037>040-048>050-030100-
NORTHEAST WISCONSIN

CITY           SKY/WX    TMP DP  RH WIND       PRES   REMARKS
ANTIGO         SUNNY     70  64  81 NW6       29.66R
SHAWANO        MOSUNNY   71  64  76 S5        29.63R
6HR MIN TEMP:  69; 6HR MAX TEMP:  89; 6HR PCP:  0.31;

OCONTO         CLOUDY    67  65  93 W3        29.61R
6HR MIN TEMP:  62; 6HR MAX TEMP:  85; 6HR PCP:  0.46;

STURGEON BAY   CLOUDY    64  59  82 W3        29.63S
6HR MIN TEMP:  61; 6HR MAX TEMP:  75;

GREEN BAY      PTSUNNY   68  63  84 NW6       29.62R
6HR MIN TEMP:  64; 6HR MAX TEMP:  93; 6HR PCP:  0.64;

MANITOWOC      CLOUDY    67  65  93 MISG      29.60R
6HR MIN TEMP:  65; 6HR MAX TEMP:  92;

APPLETON       PTSUNNY   70  57  64 N10       29.63R
CLINTONVILLE   MOSUNNY   68  63  83 SE6       29.64R
OSHKOSH        PTSUNNY   73  62  68 N14       29.61R
6HR MIN TEMP:  70; 6HR MAX TEMP:  91; 6HR PCP:  0.28;

$$

WIZ032>034-041-042-053>061-030100-
SOUTHWEST WISCONSIN

CITY           SKY/WX    TMP DP  RH WIND       PRES   REMARKS
LA CROSSE      SUNNY     84  63  49 NW16      29.67R HX  85
6HR MIN TEMP:  82; 6HR MAX TEMP:  94;

SPARTA         SUNNY     81  58  45 NW15G23   29.68R HX  81
6HR MIN TEMP:  81; 6HR MAX TEMP:  92;

VIROQUA        MOSUNNY   81  64  56 NW18      29.69S HX  82
6HR MIN TEMP:  81; 6HR MAX TEMP:  89;

BOSCOBEL       SUNNY     89  63  41 NW13      29.65S HX  90
6HR MIN TEMP:  89; 6HR MAX TEMP:  94;

PRAIRIE DU CHI SUNNY     88  58  36 W9        29.66S HX  86
6HR MIN TEMP:  87; 6HR MAX TEMP:  92;

PLATTEVILLE    SUNNY     86  71  60 W14G23    29.67F HX  91
6HR MIN TEMP:  86; 6HR MAX TEMP:  89;

$$

WIZ056-057-062-063-064-067-068-030100-
SOUTH CENTRAL WISCONSIN

CITY           SKY/WX    TMP DP  RH WIND       PRES   REMARKS
REEDSBURG      MOSUNNY   85  63  47 NW17G25   29.64R HX  86
6HR MIN TEMP:  85; 6HR MAX TEMP:  92;

BARABOO/DELLS  MOSUNNY   85  58  40 NW13G22   29.64R HX  84
6HR MIN TEMP:  85; 6HR MAX TEMP:  92;

LONE ROCK      SUNNY     88  60  38 NW16G29   29.64R HX  87
6HR MIN TEMP:  88; 6HR MAX TEMP:  93;

MINERAL POINT  SUNNY     88  59  37 W20G25    29.67S HX  87
MADISON        MOSUNNY   88  62  41 W12G21    29.60R HX  88
6HR MIN TEMP:  86; 6HR MAX TEMP:  90;

MIDDLETON      SUNNY     88  59  37 W12G24    29.63R HX  87
6HR MIN TEMP:  88; 6HR MAX TEMP:  93;

WATERTOWN      PTSUNNY   85  71  61 W17G24    29.57F HX  90
6HR MIN TEMP:  85; 6HR MAX TEMP:  88;

MONROE         MOSUNNY   86  70  58 W25G31    29.66S HX  90
JANESVILLE     MOSUNNY   88  72  58 SW15G30   29.62F HX  94
$$

WIZ051-052-058>065-066-070>072-030100-
SOUTHEAST WISCONSIN

CITY           SKY/WX    TMP DP  RH WIND       PRES   REMARKS
MILWAUKEE      PTSUNNY   88  69  53 SW23G36   29.57F HX  92
6HR MIN TEMP:  88; 6HR MAX TEMP:  93;

WAUKESHA       PTSUNNY   86  70  58 SW22G32   29.59F HX  90
MILWAUKEE/TIMM SUNNY     88  66  48 SW21G30   29.56F HX  90
RACINE         MOSUNNY   88  69  53 SW18G32   29.61R HX  92
6HR MIN TEMP:  88; 6HR MAX TEMP:  92;

BURLINGTON     MOSUNNY   85  69  58 SW20G26   29.61S HX  89
6HR MIN TEMP:  85; 6HR MAX TEMP:  88;

KENOSHA        MOSUNNY   87  71  58 SW28G37   29.60F HX  93
6HR MIN TEMP:  87; 6HR MAX TEMP:  92;

FOND DU LAC    CLOUDY    73  63  70 NE16      29.63R
6HR MIN TEMP:  66; 6HR MAX TEMP:  90; 6HR PCP:  0.56;

SHEBOYGAN      CLOUDY    66  64  93 VRB5      29.60S
6HR MIN TEMP:  64; 6HR MAX TEMP:  91; 6HR PCP:  0.35;

WEST BEND      HVY RAIN  68  63  83 SW9       29.59R VSB 3/4
JUNEAU         PTSUNNY   79  68  69 NW14      29.60R HX  81
6HR MIN TEMP:  79; 6HR MAX TEMP:  88;

$$

LSZ147-162-030100-
LAKE SUPERIOR

STATION/POSITION TIME  TEMP    WIND        PRES    WAVE
                       AIR SEA DIR/SP/G            HT/PER
                 (UTC) (F)     (DEG/KT/KT) (MB)    (FT/S)
W MID LAKE BUOY  2350   60 56  270/ 10/ 12 1002.9R   1/ 3
DEVILS ISLAND    0000   64     310/ 14/ 16 1004.2R
PORT WING        2300   68     280/  7/  8 1005.1S
SAXON HARBOR     2340   73                 1004.1R
$$

LMZ867-665-643>646-030100-
LAKE MICHIGAN

STATION/POSITION TIME  TEMP    WIND        PRES    WAVE
                       AIR SEA DIR/SP/G            HT/PER


USA.gov is the U.S. government's official web portal to all federal, state and local government web resources and services.